STARLINK-1215, 45225

Orbit data source: Space-Track

STARLINK-1215, 45225 is a payload satellite owned by SpaceX/Seattle (US) in LEO that was launched on Mon, 17 Feb 2020 UTC via an FALCON 9 launch vehicle from the Air Force Eastern Test Range (AFETR). Payload-class satellites include a variety of spacecraft equipped with specific instruments for various scientific and technological missions. These include communications satellites like Starlink; space stations such as the ISS; scientific satellites like the Hubble; Earth observation satellites from companies like Planet Labs, Umbra, and HawkEye 360; GPS; miniature CubeSats for education and research; and military/defense satellites.

Loading next visibility...
Identifier
45225, 2020-012AZ
Orbit
LEO
Country
Flag of USUS
Related business
Manufacturer
SpaceX/Seattle
Mission
Operational Commercial Communications
Bus & Motor
STARLINK, Unknown motor
Mass
260 kg wet, ~248 kg dry
Launch date (UTC)
2020-02-17 (6 years ago)
Launch vehicle
FALCON 9
Launch site
Air Force Eastern Test Range (AFETR)
Object type
Payload
Rocket body
Debris
Shape & HBR
Box + 1 Pan, 10.1 m
Radar Cross Section
13.562 m², Large (>1 m²)

Expand to show TLE details & history
Last TLE update: 10 hours ago

TLE from 10 hours ago
0 STARLINK-1215
1 45225U 20012AZ  25288.73511354 -.00000177  00000-0  69999-5 0  9990
2 45225  53.0551 297.3431 0001333  86.6303 273.4838 15.06398652313506
Epoch: 2025-10-15T17:38Z
TLE epoch observation values (Epoch: 2025-10-15T17:38:33.809Z)
Latitude
-0.00008°
Longitude
8.19724°
Altitude
548.039 km
Speed
7.589 km/s
True Right ascension
19h 49m 22s
True Declination
0° 00' 00"
Sunlit
Object was in daylight at epoch
Visualization orbit readout
Latitude
Unknown
Longitude
Unknown
Altitude
Unknown
Speed
Unknown
Apparent Right ascension
Unknown
Apparent Declination
Unknown
Sunlit
N/A
Visualization observer readout
Local Sidereal Time
22:17:57
Azimuth
Unknown
Elevation
Unknown
Doppler factor
Unknown
Orbital elements
Apogee altitude
548.409 km
Perigee altitude
546.563 km
Semi-major axis
6,925.623 km
Eccentricity
0.00013
Inclination
53.0551°
RAAN
297.3431°
Arg. of periapsis
86.6303°
True anomaly
273.46855°
Mean anomaly
273.4838°
Eccentric anomaly
273.47618°
Mean motion
3.76578 °/min
Orbital period
95.6 mins
BSTAR
0.0000069999
Loading maneuver chart data...
Computing Atmospheric mass density...
Loading historical data...
Loading historical data...
Loading historical data...
Loading historical data...
Loading historical data...
Loading historical data...
Loading historical data...

Documentation

Showing up to 5 results
|